Location: Rumah Dana
(3.1167°N, 113.0167°E)
Time: 13:22:34
(UTC+00:00)

SPOT 1/Viking Rocket - Pass Details

Date: 03 August 2024
Orbit: 774 x 792 km, 98.3° (Epoch: 07 September)

Event Time Altitude Azimuth Distance (km) Brightness Sun altitude
Exits shadow 12:36:30 40° 207° (SSW) 1,147 4.3 -28.0°
Maximum altitude 12:38:01 54° 258° (WSW) 945 4.1 -28.3°
Drops below altitude 10° 12:43:04 10° 335° (NNW) 2,341 6.5 -29.5°
Sets 12:45:26 0° 340° (NNW) 3,270 7.3 -30.0°
